Flag Weather past 2 weeks in Kassel, Hesse, Germany

Now
34 °F

Overcast.


Feels Like: 24 °F
Forecast: 29 / 36 °F
Wind: 14 mph from East

Location: Kassel / Calden

Current Time: Nov 28, 2014 at 7:41:35 PM

Latest Report: Nov 28, 2014 at 7:20 PM


Visibility: 4 mi

Pressure: 29.95 "Hg

Humidity: 87%

Dew point: 30 °F

Location of KasselLocation

Historic Weather in Kassel — Graph

°F

Kassel temperature yesterday

Maximum temperature yesterday: 41 °F (at 2:50 PM)
Minimum temperature yesterday: 32 °F (at 5:50 AM)
Average temperature yesterday: 37 °F

Past Weeks' High & Low Weather Summary

 TemperatureHumidityPressure
High54 °F (Nov 17, 2:20 PM)100% (Nov 16, 6:20 AM)30.33 "Hg (Nov 16, 6:20 AM)
Low27 °F (Nov 25, 6:20 AM)66% (Nov 26, 2:20 PM)29.47 "Hg (Nov 16, 12:50 PM)
Average43 °F88%29.98 "Hg
* Reported Nov 13 6:20 PM — Nov 28 6:20 PM, Kassel, Weather by CustomWeather, © 2014

Note: Actual official high and low records may vary slightly from our data, if they occured in-between our weather recording intervals... More about our weather records

Advertising

Kassel weather history for previous 24 hours

 ConditionsComfort  
Time TempWeatherWind HumidityBarometerVisibility
6:20 PM
Nov 28
34 °FOvercast.13 mph87%29.98 "Hg4 mi
5:50 PM34 °FOvercast.13 mph87%29.95 "Hg5 mi
5:20 PM34 °FOvercast.12 mph87%29.95 "Hg5 mi
4:50 PM36 °FPassing clouds.12 mph81%29.95 "Hg5 mi
4:20 PM36 °FMostly cloudy.14 mph87%29.92 "Hg5 mi
3:50 PM36 °FOvercast.13 mph87%29.92 "Hg5 mi
3:20 PM36 °FPartly sunny.13 mph87%29.92 "Hg5 mi
2:50 PM36 °FOvercast.13 mph87%29.92 "Hg5 mi
2:20 PM36 °FOvercast.13 mph87%29.92 "Hg5 mi
1:50 PM36 °FOvercast.15 mph87%29.92 "Hg5 mi
1:20 PM36 °FOvercast.13 mph93%29.92 "Hg5 mi
12:50 PM36 °FOvercast.15 mph87%29.92 "Hg5 mi
12:20 PM37 °FOvercast.14 mph87%29.92 "Hg5 mi
11:50 AM36 °FOvercast.12 mph87%29.92 "Hg6 mi
11:20 AM36 °FOvercast.14 mph87%29.92 "Hg6 mi
10:50 AM36 °FLow clouds.12 mph87%29.92 "Hg4 mi
10:20 AM36 °FLow clouds.12 mph87%29.92 "Hg4 mi
9:50 AM36 °FOvercast.12 mph93%29.92 "Hg4 mi
9:20 AM37 °FOvercast.10 mph87%29.92 "Hg4 mi
8:50 AM37 °FOvercast.10 mph87%29.92 "Hg4 mi
8:20 AM37 °FOvercast.8 mph87%29.89 "Hg4 mi
7:50 AM37 °FOvercast.12 mph87%29.89 "Hg4 mi
7:20 AM37 °FOvercast.10 mph87%29.89 "Hg4 mi
6:50 AM37 °FOvercast.8 mph87%29.89 "Hg4 mi
6:20 AM36 °FOvercast.7 mph93%29.86 "Hg4 mi
5:50 AM36 °FOvercast.8 mph93%29.86 "Hg4 mi
9:50 PM
Nov 27
37 °FLight rain. Passing clouds.8 mph87%29.86 "Hg4 mi
9:20 PM37 °FLight rain. Passing clouds.8 mph87%29.86 "Hg4 mi
8:50 PM37 °FLight rain. Overcast.12 mph87%29.83 "Hg4 mi
8:20 PM39 °FOvercast.10 mph81%29.83 "Hg6 mi
7:50 PM39 °FOvercast.10 mph81%29.83 "Hg6 mi
7:20 PM37 °FOvercast.8 mph87%29.83 "Hg6 mi
Weather by CustomWeather, © 2014

See weather overviewHow to use our weather pages